Location: Newark
(40.2401°N, 1.4098°W)
Time: 16:47:19
(UTC+00:00)

N. Korean satellite - Pass Details

Date: 30 October 2019
Orbit: 456 x 506 km, 97.2° (Epoch: 13 November)

Event Time Altitude Azimuth Distance (km) Brightness Sun altitude
Rises 05:15:41 0° 26° (NNE) 2,596 10.5 -15.2°
Reaches altitude 10° 05:18:05 10° 41° (NE) 1,713 9.8 -14.7°
Maximum altitude 05:21:05 23° 95° (E) 1,101 9.4 -14.1°
Drops below altitude 10° 05:24:05 10° 150° (SSE) 1,712 9.9 -13.6°
Sets 05:26:28 0° 165° (SSE) 2,594 10.6 -13.1°
